This demonstration page uses our WeatherBlox Daily Observations layout. Learn more.

Left ArrowRight Arrow

39.01783, -85.05884

Hourly Observations for March 2, 2021

Temp ( °F °C ) Dew Point ( °F °C ) Humidity (%) Winds ( mph kmh ) Pressure ( in mb ) Visibility ( mi km ) Precip ( " mm )
12:52 am 00:52 Clear 29 -1.7 20 -6.7 69 69 N 14 22 30.37 1028 10 16.0934 0 0
1:52 am 01:52 Clear 27 -2.8 18 -7.8 69 69 N 8 13 30.37 1029 10 16.0934 0 0
2:52 am 02:52 Clear 26 -3.3 15 -9.4 63 63 N 7 11 30.37 1028 10 16.0934 0 0
3:52 am 03:52 Clear 26 -3.3 14 -10 60 60 NNE 14 22 30.37 1028 10 16.0934 0 0
4:52 am 04:52 Clear 25 -3.9 14 -10 63 63 NNE 9 15 30.36 1028 10 16.0934 0 0
5:52 am 05:52 Clear 25 -3.9 14 -10 63 63 NE 9 15 30.35 1028 10 16.0934 0 0
6:52 am 06:52 Clear 24 -4.4 13 -10.6 62 62 E 6 9 30.35 1028 10 16.0934 0 0
7:52 am 07:52 Sunny 25 -3.9 14 -10 63 63 ENE 9 15 30.34 1027 10 16.0934 0 0
8:52 am 08:52 Sunny 27 -2.8 15 -9.4 61 61 ESE 9 15 30.36 1028 10 16.0934 0 0
9:52 am 09:52 Sunny 29 -1.7 15 -9.4 56 56 SSE 10 17 30.37 1028 10 16.0934 0 0
10:52 am 10:52 Sunny 32 0 15 -9.4 50 50 SE 9 15 30.36 1028 10 16.0934 0 0
11:52 am 11:52 Sunny 35 1.7 15 -9.4 44 44 VRB 7 11 30.34 1027 10 16.0934 0 0
12:52 pm 12:52 Sunny 38 3.3 16 -8.9 41 41 VRB 5 7 30.32 1027 10 16.0934 0 0
1:52 pm 13:52 Sunny 41 5 16 -8.9 36 36 S 5 7 30.28 1025 10 16.0934 0 0
2:52 pm 14:52 Sunny 42 5.6 14 -10 32 32 SW 6 9 30.24 1024 10 16.0934 0 0
3:52 pm 15:52 Sunny 43 6.1 15 -9.4 32 32 ESE 5 7 30.21 1023 10 16.0934 0 0
4:52 pm 16:52 Sunny 45 7.2 14 -10 29 29 VRB 3 6 30.19 1022 10 16.0934 0 0
5:52 pm 17:52 Mostly Sunny 43 6.1 12 -11.1 28 28 Calm 30.17 1022 10 16.0934 0 0
6:52 pm 18:52 Mostly Clear 41 5 13 -10.6 32 32 Calm 30.16 1021 10 16.0934 0 0
7:52 pm 19:52 Clear 40 4.4 13 -10.6 33 33 Calm 30.15 1021 10 16.0934 0 0
8:52 pm 20:52 Clear 33 0.6 20 -6.7 58 58 S 6 9 30.13 1020 10 16.0934 0 0
9:52 pm 21:52 Clear 32 0 17 -8.3 54 54 S 5 7 30.13 1020 10 16.0934 0 0
10:52 pm 22:52 Clear 29 -1.7 19 -7.2 66 66 SSW 6 9 30.12 1020 10 16.0934 0 0
11:52 pm 23:52 Clear 32 0 16 -8.9 52 52 SSW 7 11 30.09 1019 10 16.0934 0 0

Powered by AerisWeather